Вернуться в каталог

COSMOS 2251 DEB

АктивенLEO
NORAD 34325·DEBRIS·🇷🇺 Russia

Запущен Jun 16, 1993 с Plesetsk Cosmodrome

Loading…

Ближайшие Пролёты (ближайшие 24 часа)

TLE

СвежийSource: Space-Track

Эпоха: Sep 14, 2026, 10:46 UTC

1 34325U 93036NX  26257.44921892  .00001250  00000-0  66347-3 0  9996
2 34325  73.8687  66.4297 0191082  32.0813 350.2127 14.05680862893886

Отслеживайте COSMOS 2251 DEB в реальном времени с AllMySat

Download on the App Store